Regional Weather Roundup
Issued by NWS

Home | Current Version | Previous Version | Graphics & Text | Print | Product List | Glossary On
Versions: 1 2 3 4 5 6 7 8 9 10 11 12 13 14 15 16 17 18 19 20 21 22 23 24 25 26 27 28 29 30 31 32 33 34 35 36 37 38 39 40 41 42 43 44 45 46 47 48 49 50
141
ASUS43 KDMX 240501
RWRIA

WEATHER ROUNDUP FOR IOWA
NATIONAL WEATHER SERVICE DES MOINES IA
1200 AM CDT SAT JUN 24 2017

NOTE: "FAIR" INDICATES FEW OR NO CLOUDS BELOW 12,000 FEET WITH NO
SIGNIFICANT WEATHER AND/OR OBSTRUCTIONS TO VISIBILITY.

* - THESE STATIONS ARE NOT NWS STATIONS...THUS NOT UNDER NWS
QUALITY CONTROL.  THEY ALSO DO NOT REPORT WEATHER SUCH
AS PRECIPITATION OR FOG.

IAZ001>003-012>014-020>022-031>034-043>046-240600-
   NORTHWEST IOWA

CITY           SKY/WX    TMP DP  RH WIND       PRES   REMARKS
CARROLL *      CLEAR     55  48  76 W8        30.07R
CHEROKEE *     CLEAR     56  42  57 NW6       30.08R
DENISON *      CLEAR     55  48  76 CALM      30.10R
LE MARS *      CLEAR     57  41  54 NW8       30.10R
ORANGE CITY *  CLEAR     54  43  66 NW6       30.09S
SHELDON *      CLEAR     54  45  71 NW6       30.07R
SIOUX CITY     PTCLDY    56  42  59 NW8       30.10R
SPENCER        CLEAR     52  48  86 W8        30.06R
STORM LAKE *   CLEAR     57  45  62 NW8       30.08R
$$

IAZ055>058-069>071-079>083-090>094-240600-
   SOUTHWEST IOWA

CITY           SKY/WX    TMP DP  RH WIND       PRES   REMARKS
ATLANTIC *     MOCLDY    57  54  88 N5        30.08R
AUDUBON *      PTCLDY    55  52  88 CALM      30.09R
CLARINDA *     CLEAR     61  52  72 NW7       30.10S
COUNCIL BLFS * CLEAR     61  50  67 NW7       30.10R
CRESTON *      CLEAR     57  54  88 W6        30.09R
HARLAN  *      PTCLDY    55  50  82 NW5       30.13R
LAMONI         MOCLDY    64  53  67 NW9       30.06S
RED OAK *      PTCLDY    57  54  88 W6        30.09R
SHENANDOAH *   PTCLDY    59  54  82 SW5       30.10S
$$

IAZ047>049-059>061-072>074-084-240600-
   CENTRAL IOWA

CITY           SKY/WX    TMP DP  RH WIND       PRES   REMARKS
AMES           CLEAR     63  51  65 NW9       30.04R
ANKENY *       CLEAR     64  50  59 NW7G15    30.05R
BOONE *        CLEAR     61  50  67 NW9       30.04R
CHARITON *     CLEAR     61  52  72 W9        30.04R
DES MOINES     PTCLDY    65  51  60 NW7       30.04R
GRINNELL*      CLEAR     61  51  70 NW9       30.03R
KNOXVILLE *    MOCLDY    63  54  72 NW7       30.02R
MARSHALLTOWN   CLEAR     60  53  77 NW9       30.00R
NEWTON *       MOCLDY    63  50  63 NW12      30.03R
PELLA *        PTCLDY    62  51  66 NW8       30.03R
PERRY *          N/A     58  53  83 W7        30.05R
$$

IAZ004>006-015-016-023>025-035-036-240600-
   NORTH CENTRAL IOWA

CITY           SKY/WX    TMP DP  RH WIND       PRES   REMARKS
ALGONA *       CLEAR     54  50  87 W7        30.04S
CLARION *        N/A     55  54  94 W9        30.03S
ESTHERVILLE    CLEAR     53  49  86 NW9       30.04R
FORT DODGE *   MOCLDY    57  48  72 CALM      30.05S
MASON CITY     MOCLDY    58  50  75 W12       30.02R
FOREST CITY *  CLOUDY    59  45  58 NW9       30.02R
WEBSTER CITY * PTCLDY    55  50  82 W8        30.02S
IOWA FALLS *     N/A     59  52  79 NW8       30.03S
$$

IAZ007>011-017>019-026>030-037>042-050>054-066-240600-
   NORTHEAST IOWA

CITY           SKY/WX    TMP DP  RH WIND       PRES   REMARKS
CEDAR RAPIDS   CLEAR     59  57  93 W9        29.96R
CHARLES CITY * CLEAR     59  55  88 W9        29.99S
CLINTON *      CLEAR     61  56  83 W10       29.95R
DECORAH *      CLEAR     59  54  82 VRB5      29.94R
DUBUQUE        CLEAR     60  54  80 W12       29.94R
MONTICELLO *   CLEAR     63  55  77 NW10      29.94S
OELWEIN *      CLEAR     61  55  82 W13       29.98R
WATERLOO       PTCLDY    62  52  69 W9        29.98R
$$

IAZ064-065-067-068-078-240600-
   EAST CENTRAL IOWA

CITY           SKY/WX    TMP DP  RH WIND       PRES   REMARKS
DAVENPORT      CLEAR     62  56  80 W14       29.95R
IOWA CITY      PTCLDY    63  55  75 W7        29.99R
MT. PLEASANT * CLEAR     65  51  61 NW9       29.99R
MUSCATINE *    CLEAR     64  55  72 W12       29.97S
QUAD CITIES    CLEAR     67  54  63 W13       29.95R
$$

IAZ062-063-075>077-085>089-095>099-240600-
   SOUTHEAST IOWA

CITY           SKY/WX    TMP DP  RH WIND       PRES   REMARKS
BURLINGTON     CLEAR     64  55  72 NW6       29.97R
FAIRFIELD *    CLEAR     63  52  67 W9        30.00S
FORT MADISON * CLEAR     64  54  68 NW9       29.99S
KEOKUK *       CLEAR     64  54  68 NW7       29.98S
OSKALOOSA *      N/A     60  52  73 W8        30.02R
OTTUMWA        CLEAR     59  54  83 W8        30.01R
WASHINGTON *   CLEAR     61  55  82 W7        30.00S
$$

ABBREVIATIONS USED IN REMARKS
   TC - TEMPERATURES IN CELSIUS
  WCI - WIND CHILL INDEX
   HX - HEAT INDEX
  VSB - VISIBILITY
$$





USA.gov is the U.S. government's official web portal to all federal, state and local government web resources and services.